Time,TemperatureF,DewpointF,PressureIn,WindDirection,WindDirectionDegrees,WindSpeedMPH,WindSpeedGustMPH,Humidity,HourlyPrecipIn,Conditions,Clouds,dailyrainin,SoftwareType,DateUTC
2013-09-09 00:02:00,78.2,70.0,29.89,ESE,119,0.0,2.0,76,0.00,,,0.00,WeatherCatV1.21B27,2013-09-09 05:02:00,
2013-09-09 00:07:00,78.1,69.9,29.88,SSW,207,0.0,1.0,76,0.00,,,0.00,WeatherCatV1.21B27,2013-09-09 05:07:00,
2013-09-09 00:12:00,77.9,70.1,29.88,SSE,148,0.0,2.0,77,0.00,,,0.00,WeatherCatV1.21B27,2013-09-09 05:12:00,
2013-09-09 00:17:00,77.7,69.9,29.89,South,191,0.0,0.0,77,0.00,,,0.00,WeatherCatV1.21B27,2013-09-09 05:17:00,
2013-09-09 00:22:00,77.6,70.2,29.88,SSW,193,0.0,1.0,78,0.00,,,0.00,WeatherCatV1.21B27,2013-09-09 05:22:00,
2013-09-09 00:27:00,77.4,70.0,29.88,SE,136,0.0,1.0,78,0.00,,,0.00,WeatherCatV1.21B27,2013-09-09 05:27:00,
2013-09-09 00:32:00,77.3,70.3,29.88,SE,133,1.0,1.0,79,0.00,,,0.00,WeatherCatV1.21B27,2013-09-09 05:32:00,
2013-09-09 00:37:00,77.2,70.2,29.88,South,183,0.0,1.0,79,0.00,,,0.00,WeatherCatV1.21B27,2013-09-09 05:37:00,
2013-09-09 00:42:00,77.1,70.4,29.88,South,191,0.0,1.0,80,0.00,,,0.00,WeatherCatV1.21B27,2013-09-09 05:42:00,
2013-09-09 00:47:00,77.0,70.3,29.88,South,191,0.0,0.0,80,0.00,,,0.00,WeatherCatV1.21B27,2013-09-09 05:47:00,
2013-09-09 00:52:00,76.8,70.5,29.88,South,175,2.0,4.0,81,0.00,,,0.00,WeatherCatV1.21B27,2013-09-09 05:52:00,
2013-09-09 00:57:00,76.7,70.4,29.88,SSE,150,0.0,1.0,81,0.00,,,0.00,WeatherCatV1.21B27,2013-09-09 05:57:00,
2013-09-09 01:02:00,76.7,70.4,29.88,South,178,1.0,1.0,81,0.00,,,0.00,WeatherCatV1.21B27,2013-09-09 06:02:00,
2013-09-09 01:07:00,76.6,70.3,29.88,SSW,193,0.0,1.0,81,0.00,,,0.00,WeatherCatV1.21B27,2013-09-09 06:07:00,
2013-09-09 01:12:00,76.5,70.6,29.88,South,186,0.0,0.0,82,0.00,,,0.00,WeatherCatV1.21B27,2013-09-09 06:12:00,
2013-09-09 01:17:00,76.4,70.5,29.88,South,186,0.0,0.0,82,0.00,,,0.00,WeatherCatV1.21B27,2013-09-09 06:17:00,
2013-09-09 01:22:00,76.2,70.3,29.88,South,181,0.0,1.0,82,0.00,,,0.00,WeatherCatV1.21B27,2013-09-09 06:22:00,
2013-09-09 01:27:00,76.1,70.6,29.88,South,181,0.0,0.0,83,0.00,,,0.00,WeatherCatV1.21B27,2013-09-09 06:27:00,
2013-09-09 01:32:00,76.1,70.6,29.88,SSW,207,0.0,0.0,83,0.00,,,0.00,WeatherCatV1.21B27,2013-09-09 06:32:00,
2013-09-09 01:37:00,75.9,70.3,29.88,SSW,197,0.0,0.0,83,0.00,,,0.00,WeatherCatV1.21B27,2013-09-09 06:37:00,
2013-09-09 01:42:00,75.8,70.2,29.88,SSW,212,0.0,0.0,83,0.00,,,0.00,WeatherCatV1.21B27,2013-09-09 06:42:00,
2013-09-09 01:47:00,75.8,70.6,29.88,SSW,195,0.0,0.0,84,0.00,,,0.00,WeatherCatV1.21B27,2013-09-09 06:47:00,
2013-09-09 01:52:00,75.7,70.5,29.88,SSW,195,0.0,0.0,84,0.00,,,0.00,WeatherCatV1.21B27,2013-09-09 06:52:00,
2013-09-09 01:57:00,75.6,70.4,29.88,SSW,195,0.0,0.0,84,0.00,,,0.00,WeatherCatV1.21B27,2013-09-09 06:57:00,
2013-09-09 02:02:00,75.4,70.2,29.88,SSW,195,0.0,0.0,84,0.00,,,0.00,WeatherCatV1.21B27,2013-09-09 07:02:00,
2013-09-09 02:07:00,75.2,70.4,29.88,SSW,195,0.0,0.0,85,0.00,,,0.00,WeatherCatV1.21B27,2013-09-09 07:07:00,
2013-09-09 02:12:00,74.9,70.1,29.88,SSW,195,0.0,0.0,85,0.00,,,0.00,WeatherCatV1.21B27,2013-09-09 07:12:00,
2013-09-09 02:17:00,74.7,70.2,29.89,SSW,195,0.0,0.0,86,0.00,,,0.00,WeatherCatV1.21B27,2013-09-09 07:17:00,
2013-09-09 02:22:00,74.4,69.9,29.88,SSW,195,0.0,0.0,86,0.00,,,0.00,WeatherCatV1.21B27,2013-09-09 07:22:00,
2013-09-09 02:27:00,74.1,69.6,29.88,SSW,195,0.0,0.0,86,0.00,,,0.00,WeatherCatV1.21B27,2013-09-09 07:27:00,
2013-09-09 02:32:00,74.0,70.2,29.88,SW,226,0.0,0.0,88,0.00,,,0.00,WeatherCatV1.21B27,2013-09-09 07:32:00,
2013-09-09 02:37:00,73.9,70.1,29.88,SW,226,0.0,0.0,88,0.00,,,0.00,WeatherCatV1.21B27,2013-09-09 07:37:00,
2013-09-09 02:42:00,73.8,70.0,29.88,SW,226,0.0,0.0,88,0.00,,,0.00,WeatherCatV1.21B27,2013-09-09 07:42:00,
2013-09-09 02:47:00,73.7,69.9,29.88,SW,226,0.0,0.0,88,0.00,,,0.00,WeatherCatV1.21B27,2013-09-09 07:47:00,
2013-09-09 02:52:00,73.6,69.8,29.88,SW,226,0.0,0.0,88,0.00,,,0.00,WeatherCatV1.21B27,2013-09-09 07:52:00,
2013-09-09 02:57:00,73.4,69.6,29.88,SW,226,0.0,0.0,88,0.00,,,0.00,WeatherCatV1.21B27,2013-09-09 07:57:00,
2013-09-09 03:02:00,73.3,69.2,29.88,SW,226,0.0,0.0,87,0.00,,,0.00,WeatherCatV1.21B27,2013-09-09 08:02:00,
2013-09-09 03:07:00,73.0,69.2,29.88,SW,226,0.0,0.0,88,0.00,,,0.00,WeatherCatV1.21B27,2013-09-09 08:07:00,
2013-09-09 03:12:00,72.8,69.0,29.89,SW,226,0.0,0.0,88,0.00,,,0.00,WeatherCatV1.21B27,2013-09-09 08:12:00,
2013-09-09 03:17:00,72.7,69.3,29.89,SW,226,0.0,0.0,89,0.00,,,0.00,WeatherCatV1.21B27,2013-09-09 08:17:00,
2013-09-09 03:22:00,72.6,69.2,29.89,SW,226,0.0,0.0,89,0.00,,,0.00,WeatherCatV1.21B27,2013-09-09 08:22:00,
2013-09-09 03:27:00,72.6,69.2,29.89,SW,226,0.0,0.0,89,0.00,,,0.00,WeatherCatV1.21B27,2013-09-09 08:27:00,
2013-09-09 03:32:00,72.5,69.1,29.89,SW,226,0.0,0.0,89,0.00,,,0.00,WeatherCatV1.21B27,2013-09-09 08:32:00,
2013-09-09 03:37:00,72.4,69.0,29.89,SW,226,0.0,0.0,89,0.00,,,0.00,WeatherCatV1.21B27,2013-09-09 08:37:00,
2013-09-09 03:42:00,72.4,69.0,29.89,SW,226,0.0,0.0,89,0.00,,,0.00,WeatherCatV1.21B27,2013-09-09 08:42:00,
2013-09-09 03:47:00,72.4,69.3,29.89,SW,226,0.0,0.0,90,0.00,,,0.00,WeatherCatV1.21B27,2013-09-09 08:47:00,
2013-09-09 03:52:00,72.3,68.9,29.89,SW,226,0.0,0.0,89,0.00,,,0.00,WeatherCatV1.21B27,2013-09-09 08:52:00,
2013-09-09 03:57:00,72.2,68.8,29.89,SW,226,0.0,0.0,89,0.00,,,0.00,WeatherCatV1.21B27,2013-09-09 08:57:00,
2013-09-09 04:02:00,72.0,68.6,29.89,SW,226,0.0,0.0,89,0.00,,,0.00,WeatherCatV1.21B27,2013-09-09 09:02:00,
2013-09-09 04:07:00,71.8,68.4,29.89,SW,226,0.0,0.0,89,0.00,,,0.00,WeatherCatV1.21B27,2013-09-09 09:07:00,
2013-09-09 04:12:00,71.6,68.2,29.89,SW,226,0.0,0.0,89,0.00,,,0.00,WeatherCatV1.21B27,2013-09-09 09:12:00,
2013-09-09 04:17:00,71.4,68.3,29.89,SW,226,0.0,0.0,90,0.00,,,0.00,WeatherCatV1.21B27,2013-09-09 09:17:00,
2013-09-09 04:22:00,71.4,68.6,29.88,SW,226,0.0,0.0,91,0.00,,,0.00,WeatherCatV1.21B27,2013-09-09 09:22:00,
2013-09-09 04:27:00,71.5,68.7,29.89,SW,226,0.0,0.0,91,0.00,,,0.00,WeatherCatV1.21B27,2013-09-09 09:27:00,
2013-09-09 04:32:00,71.5,68.7,29.89,SW,226,0.0,0.0,91,0.00,,,0.00,WeatherCatV1.21B27,2013-09-09 09:32:00,
2013-09-09 04:37:00,71.5,68.7,29.89,SW,226,0.0,0.0,91,0.00,,,0.00,WeatherCatV1.21B27,2013-09-09 09:37:00,
2013-09-09 04:42:00,71.4,68.3,29.89,SW,226,0.0,0.0,90,0.00,,,0.00,WeatherCatV1.21B27,2013-09-09 09:42:00,
2013-09-09 04:47:00,71.4,68.6,29.89,SW,226,0.0,0.0,91,0.00,,,0.00,WeatherCatV1.21B27,2013-09-09 09:47:00,
2013-09-09 04:52:00,71.4,68.6,29.89,SW,226,0.0,0.0,91,0.00,,,0.00,WeatherCatV1.21B27,2013-09-09 09:52:00,
2013-09-09 04:57:00,71.6,68.8,29.89,SW,226,0.0,0.0,91,0.00,,,0.00,WeatherCatV1.21B27,2013-09-09 09:57:00,
2013-09-09 05:02:00,71.8,68.7,29.89,SW,226,0.0,0.0,90,0.00,,,0.00,WeatherCatV1.21B27,2013-09-09 10:02:00,
2013-09-09 05:07:00,71.8,68.7,29.89,SW,226,0.0,0.0,90,0.00,,,0.00,WeatherCatV1.21B27,2013-09-09 10:07:00,
2013-09-09 05:12:00,71.8,68.7,29.89,SW,226,0.0,1.0,90,0.00,,,0.00,WeatherCatV1.21B27,2013-09-09 10:12:00,
2013-09-09 05:17:00,71.8,68.7,29.89,SW,226,0.0,0.0,90,0.00,,,0.00,WeatherCatV1.21B27,2013-09-09 10:17:00,
2013-09-09 05:22:00,71.8,68.7,29.89,SW,226,0.0,0.0,90,0.00,,,0.00,WeatherCatV1.21B27,2013-09-09 10:22:00,
2013-09-09 05:27:00,71.8,68.7,29.89,SW,226,0.0,0.0,90,0.00,,,0.00,WeatherCatV1.21B27,2013-09-09 10:27:00,
2013-09-09 05:32:00,71.8,68.7,29.89,SW,226,0.0,0.0,90,0.00,,,0.00,WeatherCatV1.21B27,2013-09-09 10:32:00,
2013-09-09 05:37:00,71.8,69.0,29.89,SW,226,0.0,0.0,91,0.00,,,0.00,WeatherCatV1.21B27,2013-09-09 10:37:00,
2013-09-09 05:42:00,71.9,69.1,29.89,SW,226,0.0,0.0,91,0.00,,,0.00,WeatherCatV1.21B27,2013-09-09 10:42:00,
2013-09-09 05:47:00,72.1,69.3,29.89,SW,226,0.0,0.0,91,0.00,,,0.00,WeatherCatV1.21B27,2013-09-09 10:47:00,
2013-09-09 05:52:00,72.4,69.3,29.89,SW,226,0.0,0.0,90,0.00,,,0.00,WeatherCatV1.21B27,2013-09-09 10:52:00,
2013-09-09 05:57:00,72.6,69.5,29.89,SW,226,0.0,0.0,90,0.00,,,0.00,WeatherCatV1.21B27,2013-09-09 10:57:00,
2013-09-09 06:02:00,72.7,69.6,29.89,SW,226,0.0,0.0,90,0.00,,,0.00,WeatherCatV1.21B27,2013-09-09 11:02:00,
2013-09-09 06:07:00,72.8,70.0,29.89,SW,226,0.0,0.0,91,0.00,,,0.00,WeatherCatV1.21B27,2013-09-09 11:07:00,
2013-09-09 06:12:00,73.0,70.2,29.89,SW,226,0.0,0.0,91,0.00,,,0.00,WeatherCatV1.21B27,2013-09-09 11:12:00,
2013-09-09 06:17:00,73.1,70.3,29.90,SW,226,0.0,0.0,91,0.00,,,0.00,WeatherCatV1.21B27,2013-09-09 11:17:00,
2013-09-09 06:22:00,73.3,70.5,29.90,SW,226,0.0,0.0,91,0.00,,,0.00,WeatherCatV1.21B27,2013-09-09 11:22:00,
2013-09-09 06:27:00,73.3,70.5,29.90,SW,226,0.0,0.0,91,0.00,,,0.00,WeatherCatV1.21B27,2013-09-09 11:27:00,
2013-09-09 06:32:00,73.5,70.7,29.90,SW,226,0.0,0.0,91,0.00,,,0.00,WeatherCatV1.21B27,2013-09-09 11:32:00,
2013-09-09 06:37:00,73.4,70.3,29.90,SW,226,0.0,0.0,90,0.00,,,0.00,WeatherCatV1.21B27,2013-09-09 11:37:00,
2013-09-09 06:42:00,73.5,70.4,29.90,SW,226,0.0,0.0,90,0.00,,,0.00,WeatherCatV1.21B27,2013-09-09 11:42:00,
2013-09-09 06:47:00,73.7,70.6,29.90,SW,226,0.0,0.0,90,0.00,,,0.00,WeatherCatV1.21B27,2013-09-09 11:47:00,
2013-09-09 06:52:00,73.8,70.7,29.90,SW,226,0.0,0.0,90,0.00,,,0.00,WeatherCatV1.21B27,2013-09-09 11:52:00,
2013-09-09 06:57:00,73.9,70.8,29.90,SW,226,0.0,0.0,90,0.00,,,0.00,WeatherCatV1.21B27,2013-09-09 11:57:00,
2013-09-09 07:02:00,74.0,70.5,29.90,SW,226,0.0,0.0,89,0.00,,,0.00,WeatherCatV1.21B27,2013-09-09 12:02:00,
2013-09-09 07:07:00,74.2,71.1,29.90,SW,226,0.0,0.0,90,0.00,,,0.00,WeatherCatV1.21B27,2013-09-09 12:07:00,
2013-09-09 07:12:00,74.3,71.2,29.91,SW,228,0.0,0.0,90,0.00,,,0.00,WeatherCatV1.21B27,2013-09-09 12:12:00,
2013-09-09 07:17:00,74.5,71.0,29.91,SW,227,0.0,0.0,89,0.00,,,0.00,WeatherCatV1.21B27,2013-09-09 12:17:00,
2013-09-09 07:22:00,74.6,71.5,29.91,SSW,200,0.0,2.0,90,0.00,,,0.00,WeatherCatV1.21B27,2013-09-09 12:22:00,
2013-09-09 07:27:00,74.8,71.7,29.91,ESE,115,0.0,0.0,90,0.00,,,0.00,WeatherCatV1.21B27,2013-09-09 12:27:00,
2013-09-09 07:32:00,74.9,71.8,29.91,SSE,165,0.0,0.0,90,0.00,,,0.00,WeatherCatV1.21B27,2013-09-09 12:32:00,
2013-09-09 07:37:00,75.0,71.9,29.91,SSE,164,0.0,0.0,90,0.00,,,0.00,WeatherCatV1.21B27,2013-09-09 12:37:00,
2013-09-09 07:42:00,75.1,72.0,29.91,SSE,149,0.0,0.0,90,0.00,,,0.00,WeatherCatV1.21B27,2013-09-09 12:42:00,
2013-09-09 07:47:00,75.3,71.8,29.91,South,183,1.0,1.0,89,0.00,,,0.00,WeatherCatV1.21B27,2013-09-09 12:47:00,
2013-09-09 07:52:00,75.4,71.9,29.91,South,173,0.0,0.0,89,0.00,,,0.00,WeatherCatV1.21B27,2013-09-09 12:52:00,
2013-09-09 07:57:00,75.5,72.0,29.92,SE,125,1.0,3.0,89,0.00,,,0.00,WeatherCatV1.21B27,2013-09-09 12:57:00,
2013-09-09 08:02:00,75.6,72.1,29.92,SSE,148,1.0,2.0,89,0.00,,,0.00,WeatherCatV1.21B27,2013-09-09 13:02:00,
2013-09-09 08:07:00,75.7,71.9,29.92,SSW,194,0.0,1.0,88,0.00,,,0.00,WeatherCatV1.21B27,2013-09-09 13:07:00,
2013-09-09 08:12:00,75.9,72.1,29.92,South,173,0.0,4.0,88,0.00,,,0.00,WeatherCatV1.21B27,2013-09-09 13:12:00,
2013-09-09 08:17:00,76.2,72.0,29.92,South,184,0.0,0.0,87,0.00,,,0.00,WeatherCatV1.21B27,2013-09-09 13:17:00,
2013-09-09 08:22:00,76.4,71.9,29.92,SSE,150,2.0,4.0,86,0.00,,,0.00,WeatherCatV1.21B27,2013-09-09 13:22:00,
2013-09-09 08:27:00,76.6,72.1,29.92,South,181,1.0,2.0,86,0.00,,,0.00,WeatherCatV1.21B27,2013-09-09 13:27:00,
2013-09-09 08:32:00,77.0,72.5,29.93,South,175,1.0,2.0,86,0.00,,,0.00,WeatherCatV1.21B27,2013-09-09 13:32:00,
2013-09-09 08:37:00,77.3,72.1,29.93,SSE,166,1.0,2.0,84,0.00,,,0.00,WeatherCatV1.21B27,2013-09-09 13:37:00,
2013-09-09 08:42:00,77.5,72.3,29.93,South,184,0.0,0.0,84,0.00,,,0.00,WeatherCatV1.21B27,2013-09-09 13:42:00,
2013-09-09 08:47:00,77.6,72.4,29.93,SSE,161,0.0,0.0,84,0.00,,,0.00,WeatherCatV1.21B27,2013-09-09 13:47:00,
2013-09-09 08:52:00,77.9,72.3,29.93,SSE,162,1.0,2.0,83,0.00,,,0.00,WeatherCatV1.21B27,2013-09-09 13:52:00,
2013-09-09 08:57:00,78.0,72.4,29.93,South,184,3.0,3.0,83,0.00,,,0.00,WeatherCatV1.21B27,2013-09-09 13:57:00,
2013-09-09 09:02:00,77.8,72.2,29.93,SE,146,1.0,2.0,83,0.00,,,0.00,WeatherCatV1.21B27,2013-09-09 14:02:00,
2013-09-09 09:07:00,77.9,72.3,29.93,SSW,198,0.0,0.0,83,0.00,,,0.00,WeatherCatV1.21B27,2013-09-09 14:07:00,
2013-09-09 09:12:00,78.2,72.6,29.94,ESE,118,0.0,0.0,83,0.00,,,0.00,WeatherCatV1.21B27,2013-09-09 14:12:00,
2013-09-09 09:17:00,78.8,72.8,29.94,SE,145,3.0,3.0,82,0.00,,,0.00,WeatherCatV1.21B27,2013-09-09 14:17:00,
2013-09-09 09:22:00,79.4,72.7,29.94,SSW,193,2.0,3.0,80,0.00,,,0.00,WeatherCatV1.21B27,2013-09-09 14:22:00,
2013-09-09 09:27:00,79.9,72.8,29.94,South,179,1.0,2.0,79,0.00,,,0.00,WeatherCatV1.21B27,2013-09-09 14:27:00,
2013-09-09 09:32:00,81.0,73.1,29.94,SW,226,1.0,3.0,77,0.00,,,0.00,WeatherCatV1.21B27,2013-09-09 14:32:00,
2013-09-09 09:37:00,81.6,72.5,29.94,ESE,108,2.0,3.0,74,0.00,,,0.00,WeatherCatV1.21B27,2013-09-09 14:37:00,
2013-09-09 09:42:00,81.5,72.0,29.94,SSE,163,1.0,2.0,73,0.00,,,0.00,WeatherCatV1.21B27,2013-09-09 14:42:00,
2013-09-09 09:47:00,82.0,72.1,29.94,SSE,168,3.0,5.0,72,0.00,,,0.00,WeatherCatV1.21B27,2013-09-09 14:47:00,
2013-09-09 09:52:00,82.6,72.2,29.94,South,179,5.0,5.0,71,0.00,,,0.00,WeatherCatV1.21B27,2013-09-09 14:52:00,
2013-09-09 09:57:00,83.3,71.6,29.94,SSE,157,1.0,2.0,68,0.00,,,0.00,WeatherCatV1.21B27,2013-09-09 14:57:00,
2013-09-09 10:02:00,83.7,71.6,29.94,South,172,2.0,3.0,67,0.00,,,0.00,WeatherCatV1.21B27,2013-09-09 15:02:00,
2013-09-09 10:07:00,84.3,72.1,29.94,SE,143,2.0,3.0,67,0.00,,,0.00,WeatherCatV1.21B27,2013-09-09 15:07:00,
2013-09-09 10:12:00,84.5,71.4,29.94,SE,129,1.0,5.0,65,0.00,,,0.00,WeatherCatV1.21B27,2013-09-09 15:12:00,
2013-09-09 10:17:00,84.8,72.2,29.94,SSE,155,1.0,2.0,66,0.00,,,0.00,WeatherCatV1.21B27,2013-09-09 15:17:00,
2013-09-09 10:22:00,85.2,71.6,29.94,ESE,104,3.0,3.0,64,0.00,,,0.00,WeatherCatV1.21B27,2013-09-09 15:22:00,
2013-09-09 10:27:00,85.4,71.3,29.94,SSW,195,1.0,5.0,63,0.00,,,0.00,WeatherCatV1.21B27,2013-09-09 15:27:00,
2013-09-09 10:32:00,86.0,71.4,29.94,South,173,4.0,5.0,62,0.00,,,0.00,WeatherCatV1.21B27,2013-09-09 15:32:00,
2013-09-09 10:37:00,86.2,71.1,29.94,SE,129,2.0,4.0,61,0.00,,,0.00,WeatherCatV1.21B27,2013-09-09 15:37:00,
2013-09-09 10:42:00,86.4,70.3,29.94,SSE,159,1.0,4.0,59,0.00,,,0.00,WeatherCatV1.21B27,2013-09-09 15:42:00,
2013-09-09 10:47:00,85.0,70.0,29.94,SE,136,1.0,3.0,61,0.00,,,0.00,WeatherCatV1.21B27,2013-09-09 15:47:00,
2013-09-09 10:52:00,84.3,70.8,29.94,East,88,1.0,2.0,64,0.00,,,0.00,WeatherCatV1.21B27,2013-09-09 15:52:00,
2013-09-09 10:57:00,85.7,71.2,29.94,SSW,195,1.0,1.0,62,0.00,,,0.00,WeatherCatV1.21B27,2013-09-09 15:57:00,
2013-09-09 11:02:00,87.4,70.8,29.94,SSE,158,2.0,4.0,58,0.00,,,0.00,WeatherCatV1.21B27,2013-09-09 16:02:00,
2013-09-09 11:07:00,88.2,70.5,29.94,East,93,2.0,5.0,56,0.00,,,0.00,WeatherCatV1.21B27,2013-09-09 16:07:00,
2013-09-09 11:12:00,88.7,70.4,29.94,South,179,2.0,3.0,55,0.00,,,0.00,WeatherCatV1.21B27,2013-09-09 16:12:00,
2013-09-09 11:17:00,88.6,70.3,29.94,SE,143,4.0,4.0,55,0.00,,,0.00,WeatherCatV1.21B27,2013-09-09 16:17:00,
2013-09-09 11:22:00,88.9,70.6,29.94,WSW,237,2.0,4.0,55,0.00,,,0.00,WeatherCatV1.21B27,2013-09-09 16:22:00,
2013-09-09 11:27:00,89.3,70.4,29.94,East,82,3.0,5.0,54,0.00,,,0.00,WeatherCatV1.21B27,2013-09-09 16:27:00,
2013-09-09 11:32:00,88.3,70.6,29.94,SE,146,4.0,5.0,56,0.00,,,0.00,WeatherCatV1.21B27,2013-09-09 16:32:00,
2013-09-09 11:37:00,88.8,70.0,29.94,ESE,103,2.0,4.0,54,0.00,,,0.00,WeatherCatV1.21B27,2013-09-09 16:37:00,
2013-09-09 11:42:00,88.8,70.5,29.94,SE,128,1.0,3.0,55,0.00,,,0.00,WeatherCatV1.21B27,2013-09-09 16:42:00,
2013-09-09 11:47:00,88.7,69.9,29.94,South,185,3.0,4.0,54,0.00,,,0.00,WeatherCatV1.21B27,2013-09-09 16:47:00,
2013-09-09 11:52:00,89.5,70.6,29.94,SSW,196,6.0,7.0,54,0.00,,,0.00,WeatherCatV1.21B27,2013-09-09 16:52:00,
2013-09-09 11:57:00,90.2,69.6,29.93,SSE,160,3.0,6.0,51,0.00,,,0.00,WeatherCatV1.21B27,2013-09-09 16:57:00,
2013-09-09 12:02:00,90.7,69.5,29.93,ESE,112,2.0,4.0,50,0.00,,,0.00,WeatherCatV1.21B27,2013-09-09 17:02:00,
2013-09-09 12:07:00,91.1,69.2,29.93,SE,135,3.0,6.0,49,0.00,,,0.00,WeatherCatV1.21B27,2013-09-09 17:07:00,
2013-09-09 12:12:00,90.5,69.9,29.93,South,172,4.0,8.0,51,0.00,,,0.00,WeatherCatV1.21B27,2013-09-09 17:12:00,
2013-09-09 12:17:00,90.9,69.6,29.93,ENE,72,3.0,4.0,50,0.00,,,0.00,WeatherCatV1.21B27,2013-09-09 17:17:00,
2013-09-09 12:22:00,91.5,70.2,29.93,SSE,159,2.0,5.0,50,0.00,,,0.00,WeatherCatV1.21B27,2013-09-09 17:22:00,
2013-09-09 12:27:00,92.3,69.1,29.93,SSE,160,5.0,6.0,47,0.00,,,0.00,WeatherCatV1.21B27,2013-09-09 17:27:00,
2013-09-09 12:32:00,92.5,68.7,29.93,SSW,205,1.0,4.0,46,0.00,,,0.00,WeatherCatV1.21B27,2013-09-09 17:32:00,
2013-09-09 12:37:00,93.0,68.5,29.93,SSW,204,1.0,6.0,45,0.00,,,0.00,WeatherCatV1.21B27,2013-09-09 17:37:00,
2013-09-09 12:42:00,93.8,68.5,29.92,South,190,0.0,4.0,44,0.00,,,0.00,WeatherCatV1.21B27,2013-09-09 17:42:00,
2013-09-09 12:47:00,94.0,68.0,29.92,SSE,153,2.0,6.0,43,0.00,,,0.00,WeatherCatV1.21B27,2013-09-09 17:47:00,
2013-09-09 12:52:00,93.8,68.5,29.92,NE,51,3.0,6.0,44,0.00,,,0.00,WeatherCatV1.21B27,2013-09-09 17:52:00,
2013-09-09 12:57:00,93.8,68.5,29.92,SE,138,5.0,5.0,44,0.00,,,0.00,WeatherCatV1.21B27,2013-09-09 17:57:00,
2013-09-09 13:02:00,91.8,68.0,29.92,SSE,160,2.0,2.0,46,0.00,,,0.00,WeatherCatV1.21B27,2013-09-09 18:02:00,
2013-09-09 13:07:00,91.1,68.6,29.92,SSE,151,0.0,5.0,48,0.00,,,0.00,WeatherCatV1.21B27,2013-09-09 18:07:00,
2013-09-09 13:12:00,91.4,70.1,29.92,ESE,120,3.0,5.0,50,0.00,,,0.00,WeatherCatV1.21B27,2013-09-09 18:12:00,
2013-09-09 13:17:00,92.9,69.0,29.92,SSE,162,3.0,5.0,46,0.00,,,0.00,WeatherCatV1.21B27,2013-09-09 18:17:00,
2013-09-09 13:22:00,93.8,69.2,29.91,SSW,198,1.0,3.0,45,0.00,,,0.00,WeatherCatV1.21B27,2013-09-09 18:22:00,
2013-09-09 13:27:00,94.0,68.7,29.91,SSE,152,4.0,6.0,44,0.00,,,0.00,WeatherCatV1.21B27,2013-09-09 18:27:00,
2013-09-09 13:32:00,94.6,68.6,29.91,SE,143,0.0,6.0,43,0.00,,,0.00,WeatherCatV1.21B27,2013-09-09 18:32:00,
2013-09-09 13:37:00,94.3,69.0,29.91,SE,141,5.0,6.0,44,0.00,,,0.00,WeatherCatV1.21B27,2013-09-09 18:37:00,
2013-09-09 13:42:00,93.9,69.9,29.91,SE,139,3.0,3.0,46,0.00,,,0.00,WeatherCatV1.21B27,2013-09-09 18:42:00,
2013-09-09 13:47:00,94.7,68.7,29.90,SSE,149,3.0,5.0,43,0.00,,,0.00,WeatherCatV1.21B27,2013-09-09 18:47:00,
2013-09-09 13:52:00,93.6,68.3,29.90,SE,127,1.0,4.0,44,0.00,,,0.00,WeatherCatV1.21B27,2013-09-09 18:52:00,
2013-09-09 13:57:00,92.9,69.0,29.90,ESE,115,3.0,7.0,46,0.00,,,0.00,WeatherCatV1.21B27,2013-09-09 18:57:00,
2013-09-09 14:02:00,93.4,68.8,29.90,South,191,2.0,7.0,45,0.00,,,0.00,WeatherCatV1.21B27,2013-09-09 19:02:00,
2013-09-09 14:07:00,94.4,67.7,29.89,SSE,152,4.0,6.0,42,0.00,,,0.00,WeatherCatV1.21B27,2013-09-09 19:07:00,
2013-09-09 14:12:00,92.9,67.7,29.89,ESE,122,3.0,6.0,44,0.00,,,0.00,WeatherCatV1.21B27,2013-09-09 19:12:00,
2013-09-09 14:17:00,92.9,68.4,29.89,SSW,196,3.0,5.0,45,0.00,,,0.00,WeatherCatV1.21B27,2013-09-09 19:17:00,
2013-09-09 14:22:00,94.7,68.0,29.89,ESE,122,3.0,5.0,42,0.00,,,0.00,WeatherCatV1.21B27,2013-09-09 19:22:00,
2013-09-09 14:27:00,96.0,67.7,29.88,SE,138,3.0,7.0,40,0.00,,,0.00,WeatherCatV1.21B27,2013-09-09 19:27:00,
2013-09-09 14:32:00,95.9,67.6,29.88,South,190,1.0,4.0,40,0.00,,,0.00,WeatherCatV1.21B27,2013-09-09 19:32:00,
2013-09-09 14:37:00,95.8,66.8,29.88,SSW,205,1.0,3.0,39,0.00,,,0.00,WeatherCatV1.21B27,2013-09-09 19:37:00,
2013-09-09 14:42:00,95.0,66.1,29.88,WSW,243,2.0,5.0,39,0.00,,,0.00,WeatherCatV1.21B27,2013-09-09 19:42:00,
2013-09-09 14:47:00,94.3,67.6,29.88,ESE,112,3.0,4.0,42,0.00,,,0.00,WeatherCatV1.21B27,2013-09-09 19:47:00,
2013-09-09 14:52:00,94.6,66.5,29.87,South,172,7.0,8.0,40,0.00,,,0.00,WeatherCatV1.21B27,2013-09-09 19:52:00,
2013-09-09 14:57:00,93.8,66.5,29.87,SSE,158,4.0,6.0,41,0.00,,,0.00,WeatherCatV1.21B27,2013-09-09 19:57:00,
2013-09-09 15:02:00,94.7,67.3,29.86,SSE,150,2.0,5.0,41,0.00,,,0.00,WeatherCatV1.21B27,2013-09-09 20:02:00,
2013-09-09 15:07:00,95.4,67.2,29.86,SE,142,1.0,4.0,40,0.00,,,0.00,WeatherCatV1.21B27,2013-09-09 20:07:00,
2013-09-09 15:12:00,96.1,67.1,29.86,SSE,166,2.0,2.0,39,0.00,,,0.00,WeatherCatV1.21B27,2013-09-09 20:12:00,
2013-09-09 15:17:00,96.8,66.9,29.86,SE,128,3.0,6.0,38,0.00,,,0.00,WeatherCatV1.21B27,2013-09-09 20:17:00,
2013-09-09 15:22:00,96.8,66.9,29.86,SSW,205,0.0,4.0,38,0.00,,,0.00,WeatherCatV1.21B27,2013-09-09 20:22:00,
2013-09-09 15:27:00,96.9,67.0,29.85,SE,132,2.0,7.0,38,0.00,,,0.00,WeatherCatV1.21B27,2013-09-09 20:27:00,
2013-09-09 15:32:00,98.4,66.8,29.85,South,191,3.0,6.0,36,0.00,,,0.00,WeatherCatV1.21B27,2013-09-09 20:32:00,
2013-09-09 15:37:00,96.8,66.2,29.85,SE,143,2.0,6.0,37,0.00,,,0.00,WeatherCatV1.21B27,2013-09-09 20:37:00,
2013-09-09 15:42:00,95.0,66.8,29.86,SSE,165,1.0,2.0,40,0.00,,,0.00,WeatherCatV1.21B27,2013-09-09 20:42:00,
2013-09-09 15:47:00,94.0,66.7,29.85,ESE,111,3.0,6.0,41,0.00,,,0.00,WeatherCatV1.21B27,2013-09-09 20:47:00,
2013-09-09 15:52:00,93.2,66.6,29.85,SE,145,3.0,3.0,42,0.00,,,0.00,WeatherCatV1.21B27,2013-09-09 20:52:00,
2013-09-09 15:57:00,92.4,67.3,29.86,ESE,123,4.0,5.0,44,0.00,,,0.00,WeatherCatV1.21B27,2013-09-09 20:57:00,
2013-09-09 16:02:00,89.1,69.7,29.86,SW,219,2.0,3.0,53,0.40,,,0.03,WeatherCatV1.21B27,2013-09-09 21:02:00,
2013-09-09 16:07:00,85.5,71.4,29.86,WSW,239,2.0,2.0,63,0.92,,,0.05,WeatherCatV1.21B27,2013-09-09 21:07:00,
2013-09-09 16:12:00,83.3,72.0,29.86,WSW,237,0.0,1.0,69,0.14,,,0.07,WeatherCatV1.21B27,2013-09-09 21:12:00,
2013-09-09 16:17:00,81.8,72.7,29.86,SSW,199,0.0,3.0,74,0.06,,,0.07,WeatherCatV1.21B27,2013-09-09 21:17:00,
2013-09-09 16:22:00,81.5,71.6,29.85,SW,231,0.0,1.0,72,0.04,,,0.07,WeatherCatV1.21B27,2013-09-09 21:22:00,
2013-09-09 16:27:00,81.0,71.9,29.85,SW,214,0.0,2.0,74,0.00,,,0.07,WeatherCatV1.21B27,2013-09-09 21:27:00,
2013-09-09 16:32:00,81.0,72.7,29.85,WSW,244,0.0,0.0,76,0.00,,,0.07,WeatherCatV1.21B27,2013-09-09 21:32:00,
2013-09-09 16:37:00,81.3,73.4,29.85,WSW,240,0.0,0.0,77,0.00,,,0.07,WeatherCatV1.21B27,2013-09-09 21:37:00,
2013-09-09 16:42:00,82.2,75.8,29.85,WSW,240,0.0,0.0,81,0.00,,,0.07,WeatherCatV1.21B27,2013-09-09 21:42:00,
2013-09-09 16:47:00,83.9,75.5,29.85,SSE,166,0.0,2.0,76,0.00,,,0.07,WeatherCatV1.21B27,2013-09-09 21:47:00,
2013-09-09 16:52:00,85.9,73.6,29.85,SE,135,2.0,2.0,67,0.00,,,0.07,WeatherCatV1.21B27,2013-09-09 21:52:00,
2013-09-09 16:57:00,86.8,71.7,29.85,South,173,3.0,3.0,61,0.00,,,0.07,WeatherCatV1.21B27,2013-09-09 21:57:00,
2013-09-09 17:02:00,87.0,71.9,29.85,SSE,165,0.0,1.0,61,0.00,,,0.07,WeatherCatV1.21B27,2013-09-09 22:02:00,
2013-09-09 17:07:00,87.3,71.7,29.85,SE,131,3.0,3.0,60,0.00,,,0.07,WeatherCatV1.21B27,2013-09-09 22:07:00,
2013-09-09 17:12:00,87.6,71.5,29.85,SE,146,0.0,2.0,59,0.00,,,0.07,WeatherCatV1.21B27,2013-09-09 22:12:00,
2013-09-09 17:17:00,88.0,69.8,29.85,SSW,198,1.0,3.0,55,0.00,,,0.07,WeatherCatV1.21B27,2013-09-09 22:17:00,
2013-09-09 17:22:00,88.0,70.3,29.85,SE,131,6.0,9.0,56,0.00,,,0.07,WeatherCatV1.21B27,2013-09-09 22:22:00,
2013-09-09 17:27:00,86.2,70.2,29.86,South,188,3.0,10.0,59,0.00,,,0.07,WeatherCatV1.21B27,2013-09-09 22:27:00,
2013-09-09 17:32:00,83.8,68.9,29.86,SSE,161,6.0,10.0,61,0.00,,,0.07,WeatherCatV1.21B27,2013-09-09 22:32:00,
2013-09-09 17:37:00,82.5,67.7,29.86,SE,136,6.0,11.0,61,0.00,,,0.07,WeatherCatV1.21B27,2013-09-09 22:37:00,
2013-09-09 17:42:00,81.6,68.2,29.87,SE,133,6.0,13.0,64,0.00,,,0.07,WeatherCatV1.21B27,2013-09-09 22:42:00,
2013-09-09 17:47:00,81.0,68.1,29.88,SE,144,7.0,8.0,65,0.00,,,0.07,WeatherCatV1.21B27,2013-09-09 22:47:00,
2013-09-09 17:52:00,80.5,69.4,29.88,SSW,211,1.0,9.0,69,0.00,,,0.07,WeatherCatV1.21B27,2013-09-09 22:52:00,
2013-09-09 17:57:00,79.2,69.4,29.88,ESE,109,2.0,6.0,72,0.00,,,0.07,WeatherCatV1.21B27,2013-09-09 22:57:00,
2013-09-09 18:02:00,78.2,70.0,29.89,SE,128,4.0,5.0,76,0.00,,,0.07,WeatherCatV1.21B27,2013-09-09 23:02:00,
2013-09-09 18:07:00,77.6,70.6,29.89,SE,146,2.0,3.0,79,0.00,,,0.07,WeatherCatV1.21B27,2013-09-09 23:07:00,
2013-09-09 18:12:00,77.3,70.6,29.89,South,188,0.0,3.0,80,0.00,,,0.07,WeatherCatV1.21B27,2013-09-09 23:12:00,
2013-09-09 18:17:00,77.3,70.6,29.89,SSE,153,3.0,5.0,80,0.00,,,0.07,WeatherCatV1.21B27,2013-09-09 23:17:00,
2013-09-09 18:22:00,77.5,70.8,29.90,SSE,155,4.0,5.0,80,0.00,,,0.07,WeatherCatV1.21B27,2013-09-09 23:22:00,
2013-09-09 18:27:00,77.9,70.1,29.89,SE,133,3.0,4.0,77,0.00,,,0.07,WeatherCatV1.21B27,2013-09-09 23:27:00,
2013-09-09 18:32:00,78.0,70.2,29.89,South,176,3.0,4.0,77,0.00,,,0.07,WeatherCatV1.21B27,2013-09-09 23:32:00,
2013-09-09 18:37:00,77.9,70.5,29.89,SE,141,4.0,4.0,78,0.00,,,0.07,WeatherCatV1.21B27,2013-09-09 23:37:00,
2013-09-09 18:42:00,77.8,70.4,29.89,ESE,121,4.0,4.0,78,0.00,,,0.07,WeatherCatV1.21B27,2013-09-09 23:42:00,
2013-09-09 18:47:00,77.7,70.7,29.89,SSE,155,2.0,6.0,79,0.00,,,0.07,WeatherCatV1.21B27,2013-09-09 23:47:00,
2013-09-09 18:52:00,77.7,71.0,29.89,East,98,3.0,4.0,80,0.00,,,0.07,WeatherCatV1.21B27,2013-09-09 23:52:00,
2013-09-09 18:57:00,77.7,71.0,29.89,ESE,122,1.0,6.0,80,0.00,,,0.07,WeatherCatV1.21B27,2013-09-09 23:57:00,
2013-09-09 19:02:00,77.6,70.9,29.89,ESE,117,2.0,8.0,80,0.00,,,0.07,WeatherCatV1.21B27,2013-09-10 00:02:00,
2013-09-09 19:07:00,77.6,70.9,29.89,ESE,108,5.0,6.0,80,0.00,,,0.07,WeatherCatV1.21B27,2013-09-10 00:07:00,
2013-09-09 19:12:00,77.5,70.8,29.89,ESE,120,2.0,7.0,80,0.00,,,0.07,WeatherCatV1.21B27,2013-09-10 00:12:00,
2013-09-09 19:17:00,77.5,70.8,29.89,SE,145,2.0,4.0,80,0.00,,,0.07,WeatherCatV1.21B27,2013-09-10 00:17:00,
2013-09-09 19:22:00,77.5,70.8,29.89,SSE,153,1.0,3.0,80,0.00,,,0.07,WeatherCatV1.21B27,2013-09-10 00:22:00,
2013-09-09 19:27:00,77.5,70.8,29.89,SE,138,1.0,4.0,80,0.00,,,0.07,WeatherCatV1.21B27,2013-09-10 00:27:00,
2013-09-09 19:32:00,77.5,70.8,29.89,ESE,115,2.0,2.0,80,0.00,,,0.07,WeatherCatV1.21B27,2013-09-10 00:32:00,
2013-09-09 19:37:00,77.5,70.8,29.89,East,95,2.0,3.0,80,0.00,,,0.07,WeatherCatV1.21B27,2013-09-10 00:37:00,
2013-09-09 19:42:00,77.3,71.0,29.89,SE,140,1.0,3.0,81,0.00,,,0.07,WeatherCatV1.21B27,2013-09-10 00:42:00,
2013-09-09 19:47:00,77.2,70.9,29.89,SE,129,1.0,3.0,81,0.00,,,0.07,WeatherCatV1.21B27,2013-09-10 00:47:00,
2013-09-09 19:52:00,77.1,70.8,29.89,South,171,1.0,5.0,81,0.00,,,0.07,WeatherCatV1.21B27,2013-09-10 00:52:00,
2013-09-09 19:57:00,76.9,71.0,29.89,ESE,119,1.0,3.0,82,0.00,,,0.07,WeatherCatV1.21B27,2013-09-10 00:57:00,
2013-09-09 20:02:00,76.9,71.0,29.89,SE,129,2.0,4.0,82,0.00,,,0.07,WeatherCatV1.21B27,2013-09-10 01:02:00,
2013-09-09 20:07:00,76.8,70.9,29.89,SSE,158,1.0,6.0,82,0.00,,,0.07,WeatherCatV1.21B27,2013-09-10 01:07:00,
2013-09-09 20:12:00,76.9,71.0,29.89,SE,127,1.0,2.0,82,0.00,,,0.07,WeatherCatV1.21B27,2013-09-10 01:12:00,
2013-09-09 20:17:00,76.8,70.9,29.89,SE,138,0.0,2.0,82,0.00,,,0.07,WeatherCatV1.21B27,2013-09-10 01:17:00,
2013-09-09 20:22:00,76.7,70.8,29.90,East,95,2.0,2.0,82,0.00,,,0.07,WeatherCatV1.21B27,2013-09-10 01:22:00,
2013-09-09 20:27:00,76.7,70.8,29.90,SE,142,0.0,2.0,82,0.00,,,0.07,WeatherCatV1.21B27,2013-09-10 01:27:00,
2013-09-09 20:32:00,76.6,70.7,29.90,ESE,115,1.0,1.0,82,0.00,,,0.07,WeatherCatV1.21B27,2013-09-10 01:32:00,
2013-09-09 20:37:00,76.6,70.7,29.90,SSW,198,0.0,0.0,82,0.00,,,0.07,WeatherCatV1.21B27,2013-09-10 01:37:00,
2013-09-09 20:42:00,76.4,70.8,29.90,SSW,198,0.0,0.0,83,0.00,,,0.07,WeatherCatV1.21B27,2013-09-10 01:42:00,
2013-09-09 20:47:00,76.4,70.8,29.90,South,189,0.0,0.0,83,0.00,,,0.07,WeatherCatV1.21B27,2013-09-10 01:47:00,
2013-09-09 20:52:00,76.4,70.8,29.91,SE,144,0.0,0.0,83,0.00,,,0.07,WeatherCatV1.21B27,2013-09-10 01:52:00,
2013-09-09 20:57:00,76.4,70.5,29.91,South,191,0.0,1.0,82,0.00,,,0.07,WeatherCatV1.21B27,2013-09-10 01:57:00,
2013-09-09 21:02:00,76.4,70.8,29.91,South,191,0.0,0.0,83,0.00,,,0.07,WeatherCatV1.21B27,2013-09-10 02:02:00,
2013-09-09 21:08:00,76.2,70.6,29.91,South,191,0.0,0.0,83,0.00,,,0.07,WeatherCatV1.21B27,2013-09-10 02:08:00,
2013-09-09 21:13:00,76.1,70.6,29.91,South,191,0.0,0.0,83,0.00,,,0.07,WeatherCatV1.21B27,2013-09-10 02:13:00,
2013-09-09 21:18:00,76.1,70.6,29.91,ESE,122,0.0,0.0,83,0.00,,,0.07,WeatherCatV1.21B27,2013-09-10 02:18:00,
2013-09-09 21:23:00,76.1,70.6,29.91,SSW,200,1.0,2.0,83,0.00,,,0.07,WeatherCatV1.21B27,2013-09-10 02:23:00,
2013-09-09 21:27:00,76.2,70.3,29.91,SE,139,0.0,1.0,82,0.00,,,0.07,WeatherCatV1.21B27,2013-09-10 02:27:00,
2013-09-09 21:32:00,76.3,70.4,29.91,SE,136,1.0,1.0,82,0.00,,,0.07,WeatherCatV1.21B27,2013-09-10 02:32:00,
2013-09-09 21:37:00,76.2,70.3,29.91,South,173,0.0,0.0,82,0.00,,,0.07,WeatherCatV1.21B27,2013-09-10 02:37:00,
2013-09-09 21:42:00,76.1,70.2,29.91,SE,136,0.0,0.0,82,0.00,,,0.07,WeatherCatV1.21B27,2013-09-10 02:42:00,
2013-09-09 21:47:00,76.1,70.2,29.92,SE,142,0.0,1.0,82,0.00,,,0.07,WeatherCatV1.21B27,2013-09-10 02:47:00,
2013-09-09 21:53:00,76.1,70.6,29.92,South,181,0.0,2.0,83,0.00,,,0.07,WeatherCatV1.21B27,2013-09-10 02:53:00,
2013-09-09 21:58:00,76.1,70.2,29.92,South,181,0.0,0.0,82,0.00,,,0.07,WeatherCatV1.21B27,2013-09-10 02:58:00,
2013-09-09 22:03:00,76.0,70.4,29.92,South,184,0.0,0.0,83,0.00,,,0.07,WeatherCatV1.21B27,2013-09-10 03:03:00,
2013-09-09 22:08:00,75.9,70.3,29.92,South,179,0.0,0.0,83,0.00,,,0.07,WeatherCatV1.21B27,2013-09-10 03:08:00,
2013-09-09 22:13:00,75.8,70.2,29.92,South,179,0.0,0.0,83,0.00,,,0.07,WeatherCatV1.21B27,2013-09-10 03:13:00,
2013-09-09 22:18:00,75.7,70.5,29.92,South,179,0.0,0.0,84,0.00,,,0.07,WeatherCatV1.21B27,2013-09-10 03:18:00,
2013-09-09 22:23:00,75.7,70.5,29.92,SE,146,0.0,0.0,84,0.00,,,0.07,WeatherCatV1.21B27,2013-09-10 03:23:00,
2013-09-09 22:28:00,75.7,70.5,29.92,SE,129,0.0,0.0,84,0.00,,,0.07,WeatherCatV1.21B27,2013-09-10 03:28:00,
2013-09-09 22:33:00,75.7,70.5,29.92,SE,129,0.0,0.0,84,0.00,,,0.07,WeatherCatV1.21B27,2013-09-10 03:33:00,
2013-09-09 22:38:00,75.7,70.5,29.92,South,174,0.0,0.0,84,0.00,,,0.07,WeatherCatV1.21B27,2013-09-10 03:38:00,
2013-09-09 22:43:00,75.5,70.3,29.92,SSW,197,0.0,0.0,84,0.00,,,0.07,WeatherCatV1.21B27,2013-09-10 03:43:00,
2013-09-09 22:48:00,75.4,70.6,29.92,SSW,196,1.0,1.0,85,0.00,,,0.07,WeatherCatV1.21B27,2013-09-10 03:48:00,
2013-09-09 22:53:00,75.4,70.6,29.92,South,176,0.0,0.0,85,0.00,,,0.07,WeatherCatV1.21B27,2013-09-10 03:53:00,
2013-09-09 22:58:00,75.4,70.6,29.92,SSW,193,0.0,1.0,85,0.00,,,0.07,WeatherCatV1.21B27,2013-09-10 03:58:00,
2013-09-09 23:01:00,75.3,70.5,29.92,SSW,193,0.0,0.0,85,0.00,,,0.07,WeatherCatV1.21B27,2013-09-10 04:01:00,
2013-09-09 23:02:00,75.3,70.5,29.92,SSW,193,0.0,0.0,85,0.00,,,0.07,WeatherCatV1.21B27,2013-09-10 04:02:00,
2013-09-09 23:03:00,75.3,70.8,29.92,SSW,193,0.0,0.0,86,0.00,,,0.07,WeatherCatV1.21B27,2013-09-10 04:03:00,
2013-09-09 23:08:00,75.1,70.6,29.92,South,191,0.0,0.0,86,0.00,,,0.07,WeatherCatV1.21B27,2013-09-10 04:08:00,
2013-09-09 23:13:00,74.9,70.8,29.92,SW,233,0.0,0.0,87,0.00,,,0.07,WeatherCatV1.21B27,2013-09-10 04:13:00,
2013-09-09 23:18:00,74.9,70.8,29.92,SE,141,0.0,0.0,87,0.00,,,0.07,WeatherCatV1.21B27,2013-09-10 04:18:00,
2013-09-09 23:23:00,75.0,70.9,29.92,SE,134,2.0,2.0,87,0.00,,,0.07,WeatherCatV1.21B27,2013-09-10 04:23:00,
2013-09-09 23:28:00,75.1,70.9,29.92,SE,131,0.0,0.0,87,0.00,,,0.07,WeatherCatV1.21B27,2013-09-10 04:28:00,
2013-09-09 23:33:00,75.1,70.9,29.92,SSE,150,0.0,0.0,87,0.00,,,0.07,WeatherCatV1.21B27,2013-09-10 04:33:00,
2013-09-09 23:38:00,75.0,70.9,29.92,South,175,0.0,3.0,87,0.00,,,0.07,WeatherCatV1.21B27,2013-09-10 04:38:00,
2013-09-09 23:43:00,75.0,70.9,29.92,South,175,0.0,0.0,87,0.00,,,0.07,WeatherCatV1.21B27,2013-09-10 04:43:00,
2013-09-09 23:48:00,74.9,71.1,29.92,South,176,0.0,0.0,88,0.00,,,0.07,WeatherCatV1.21B27,2013-09-10 04:48:00,
2013-09-09 23:53:00,74.8,71.0,29.93,SSE,159,0.0,0.0,88,0.00,,,0.07,WeatherCatV1.21B27,2013-09-10 04:53:00,
2013-09-09 23:58:00,74.8,71.0,29.93,SSE,159,0.0,0.0,88,0.00,,,0.07,WeatherCatV1.21B27,2013-09-10 04:58:00,